Temperature
17 17 18 18 18 18 18 17 17 17 17 16 16 16 15 15 14 14 14 13 13 13 13 13 13 13 13 13 13 13 13 14 14 14 14 15 15 15 16 16 16 16 16
17 18 18 18 18 18 18 17 17 17 16 16 15 15 14 14 13 13 13 13 12 12 13 13 13 13 13 13 13 13 13 13 13 13 13 14 15 15 15 15 15 15 15
18 18 18 18 18 18 18 17 17 16 16 15 15 14 14 13 13 13 12 12 12 12 12 12 12 12 12 12 12 12 12 13 13 13 13 13 13 14 15 15 15 15 15
19 19 19 18 18 18 17 17 16 16 15 15 14 14 13 13 12 12 12 11 11 11 11 11 11 11 12 12 12 12 12 12 12 12 12 12 12 13 13 14 14 15 15
19 19 19 19 18 18 17 17 16 16 15 14 14 13 13 12 12 11 11 11 11 11 11 11 11 11 11 11 11 11 11 12 12 12 12 12 12 12 12 13 14 14 15
19 19 19 19 18 18 17 17 16 16 15 14 13 13 12 12 11 11 11 11 11 10 10 10 10 10 10 10 11 11 11 11 11 11 11 11 11 12 12 12 13 14 15
19 19 19 19 18 18 17 17 16 15 14 14 13 12 12 11 11 11 10 10 10 10 10 10 10 10 10 10 10 10 10 10 11 11 11 11 11 11 11 11 12 12 14
20 19 19 19 18 18 17 17 16 15 14 13 12 12 11 11 11 10 10 10 10 10 10 9 9 9 9 9 9 9 9 10 10 10 10 11 11 11 11 11 11 12 13
20 20 19 19 18 18 17 16 15 14 13 13 12 11 11 11 10 10 10 10 10 9 9 9 9 9 9 9 8 9 9 9 9 9 10 10 10 10 10 11 11 11 11
20 19 19 18 18 17 16 15 15 14 13 12 12 11 11 11 10 10 10 10 9 9 9 9 9 9 8 8 8 8 8 8 8 9 9 9 9 10 10 10 10 11 11
20 19 19 18 17 17 16 15 14 13 13 12 11 11 11 10 10 10 10 9 9 9 9 9 9 9 8 8 8 8 8 8 8 8 8 8 9 9 9 10 10 10 10
20 19 18 18 17 16 15 15 14 13 12 12 11 11 10 10 10 10 9 9 9 9 9 8 8 8 8 8 8 8 8 8 8 8 8 8 8 8 9 9 9 10 10
19 19 18 17 17 16 15 14 13 13 12 11 11 11 10 10 10 10 9 9 9 9 9 8 8 8 8 8 8 8 8 8 8 8 8 8 8 8 8 9 9 9 10
19 18 18 17 16 16 15 14 13 12 12 11 11 10 10 10 10 9 9 9 9 8 8 8 8 8 8 8 8 8 8 8 8 8 8 8 8 8 8 8 8 9 9
19 18 18 17 16 15 14 13 13 12 11 11 10 10 10 10 9 9 9 9 9 8 8 8 8 8 8 8 8 8 8 8 8 8 8 8 7 7 7 8 8 8 9
19 19 18 17 16 15 14 13 12 12 11 10 10 10 10 9 9 9 9 9 8 8 8 8 8 8 8 8 8 7 7 8 8 8 8 8 7 7 7 7 7 8 8
19 18 18 17 16 15 14 13 12 11 11 10 10 10 9 9 9 9 9 9 8 8 8 8 8 8 8 8 8 7 7 7 7 7 7 7 7 7 7 7 7 7 8
19 18 17 16 15 14 14 13 12 11 11 10 10 10 9 9 9 9 9 8 8 8 8 8 8 8 8 8 8 7 7 7 7 7 7 7 7 7 7 7 7 7 7
19 18 17 16 15 14 14 13 12 11 11 10 10 9 9 9 9 9 9 8 8 8 8 8 8 8 8 8 7 7 7 7 7 7 7 7 7 7 7 6 6 7 7
19 18 17 16 15 14 14 13 12 11 11 10 10 9 9 9 9 9 8 8 8 8 8 8 8 8 8 8 7 7 7 7 7 7 7 7 6 7 6 6 6 6 7
19 18 17 16 15 14 14 13 12 12 11 10 10 9 9 9 9 8 8 8 8 8 8 8 8 8 8 8 7 7 7 7 6 6 7 7 6 6 6 6 6 6 7
19 18 17 16 15 14 14 13 13 12 11 10 10 9 9 9 8 8 8 8 8 8 8 8 8 8 8 7 7 7 7 6 6 6 6 6 6 6 6 6 6 6 6
19 18 17 16 15 15 14 14 13 12 11 11 10 9 9 9 8 8 8 8 8 8 8 8 8 8 8 8 7 7 7 6 6 6 6 6 6 6 6 6 6 6 6
19 18 17 16 16 15 14 14 13 12 11 11 10 10 9 9 9 8 8 8 8 8 8 8 8 8 8 8 7 7 7 6 6 6 6 6 6 6 6 6 6 6 6
19 18 17 17 16 15 15 14 13 12 11 11 10 10 9 9 9 9 9 8 8 8 8 8 8 8 8 8 7 7 7 6 6 6 6 6 6 6 6 6 6 6 6
19 18 17 17 16 15 15 14 13 12 11 11 10 10 9 9 9 9 9 9 9 8 8 8 8 8 8 7 7 7 7 6 6 6 6 6 6 6 6 6 6 6 6
Wind_Speed
5 6 6 6 5 5 4 4 4 3 2 1 1 2 2 3 3 4 6 7 7 7 5 3 3 3 2 3 3 3 3 3 2 3 5 5 7 9 9 9 9 11 14
5 6 7 7 7 7 6 5 5 4 2 1 1 1 1 2 2 3 5 7 8 7 5 4 4 3 2 3 3 2 2 2 2 2 3 4 4 3 6 6 8 10 8
8 8 8 9 8 8 8 6 6 4 3 2 1 1 2 3 3 3 3 5 7 7 6 5 3 3 2 2 3 2 2 2 2 2 2 2 3 4 3 4 6 6 7
8 8 8 8 9 9 6 6 6 5 4 3 2 2 1 2 3 3 3 5 6 6 6 5 4 3 2 2 3 1 1 1 2 2 2 3 3 4 4 3 3 5 7
8 9 9 9 7 6 6 6 6 5 4 3 3 3 3 3 3 3 5 5 5 5 6 5 3 3 2 3 3 2 1 1 2 2 2 2 3 3 3 5 4 3 4
8 7 6 5 4 4 4 5 5 5 4 3 3 4 5 5 5 5 5 5 4 4 5 5 3 3 3 3 3 3 3 2 3 2 2 2 2 2 2 4 5 5 4
6 6 6 6 6 6 5 5 5 4 4 4 5 5 6 6 6 6 5 5 4 4 6 4 4 4 4 4 3 3 3 3 3 3 3 3 4 3 3 4 4 5 4
6 7 8 7 7 7 6 5 5 5 5 5 6 5 6 5 5 6 5 6 5 6 7 6 6 6 5 5 4 3 4 3 4 5 4 4 5 4 3 3 3 5 4
6 7 7 7 6 6 6 6 6 6 6 6 6 6 6 6 6 6 6 5 6 6 7 6 7 7 6 6 5 4 5 4 5 5 5 4 4 4 5 4 4 3 4
6 6 6 5 4 4 4 4 5 6 6 6 6 5 6 6 6 5 7 7 7 7 7 8 8 7 7 6 5 5 6 6 6 5 5 5 5 5 5 5 5 5 5
8 6 5 3 3 3 4 4 5 5 6 6 6 6 6 6 6 6 7 7 7 7 8 8 8 8 8 7 6 7 7 7 7 6 6 7 6 5 5 5 5 5 5
6 4 3 3 3 4 5 5 6 6 7 6 6 6 6 6 6 7 8 7 8 8 8 8 9 9 9 8 8 9 9 8 9 9 8 9 7 7 6 5 6 6 6
5 3 3 4 5 6 6 6 6 7 7 6 6 6 7 7 7 8 8 8 8 8 9 8 9 10 10 10 9 10 10 10 10 10 10 10 9 9 7 7 7 6 7
6 5 5 6 6 6 6 7 7 7 6 5 6 7 7 7 8 8 8 8 8 9 9 9 10 10 10 11 11 11 11 11 11 10 10 10 10 10 10 8 8 7 7
7 8 8 7 7 7 7 7 7 7 6 5 6 8 8 7 7 8 8 8 9 10 9 10 10 10 10 10 11 11 11 11 11 11 11 11 12 14 11 9 8 8 7
10 9 9 8 8 8 8 7 7 7 5 6 7 7 7 7 8 8 8 9 9 10 9 10 11 11 10 12 15 14 12 12 13 13 12 11 13 15 16 17 15 13 10
10 10 10 9 9 8 8 8 8 6 5 6 7 7 7 8 8 9 8 9 10 9 10 11 11 11 13 15 17 17 13 12 13 13 12 11 11 12 11 13 16 16 17
11 10 9 9 8 7 7 6 6 6 6 7 8 8 7 8 9 8 9 10 9 9 10 11 11 11 13 15 15 16 12 12 13 13 13 13 13 12 12 12 12 12 12
11 10 10 8 7 8 7 6 6 6 6 7 8 8 7 8 9 10 10 10 9 10 10 10 11 12 13 14 14 13 9 9 12 12 12 13 13 14 15 13 13 13 11
9 9 7 6 7 8 6 6 7 7 8 8 8 7 7 8 10 10 11 9 9 10 10 11 11 11 12 14 14 12 7 9 10 10 10 14 15 15 15 13 13 14 12
11 9 8 7 8 7 5 7 8 9 9 7 7 7 8 8 10 10 9 10 10 10 10 11 11 11 12 13 14 12 7 7 8 9 9 9 13 15 16 15 13 14 12
10 9 8 9 8 6 7 8 9 10 7 6 7 8 8 8 8 9 10 9 9 10 10 10 11 9 9 10 11 12 11 9 8 9 9 9 11 13 15 13 14 15 13
10 9 10 9 8 7 8 10 10 7 6 6 8 8 9 9 8 9 10 9 8 8 8 8 9 10 8 7 11 12 11 10 8 8 10 11 12 11 10 12 14 12 10
10 9 9 9 9 9 9 11 9 6 6 7 8 7 8 9 9 8 7 8 8 8 8 9 9 9 9 8 6 5 6 7 7 6 7 9 10 8 7 7 7 8 8
9 9 10 11 12 9 9 9 8 6 7 7 8 8 8 9 9 9 8 9 9 9 10 9 9 9 10 9 8 6 6 5 5 5 4 4 4 4 4 5 6 7 8
9 8 10 11 11 9 9 8 7 7 7 7 7 6 7 7 8 9 10 10 12 14 16 16 14 11 13 15 13 12 11 10 8 5 5 5 5 5 6 6 6 7 8
Wind_Direction
188 187 192 193 191 198 195 189 180 179 142 88 69 39 355 340 345 348 357 358 359 1 360 344 329 326 308 298 305 296 299 291 286 287 289 276 255 246 244 239 236 233 229
193 201 206 206 205 208 209 207 205 200 189 157 147 163 261 296 295 314 336 351 355 354 356 346 328 318 305 310 315 298 304 298 310 286 294 308 312 276 248 240 236 235 230
205 211 212 215 214 217 212 209 209 209 204 171 109 55 17 347 337 329 328 333 337 341 346 339 328 317 291 287 294 290 275 290 304 283 286 302 303 316 291 249 245 242 235
216 217 219 221 221 222 210 205 206 210 210 183 177 194 233 271 269 281 294 308 319 326 333 333 330 321 305 290 290 303 267 258 293 310 288 263 274 290 311 309 266 249 242
224 225 225 223 223 214 201 201 200 213 213 200 198 211 242 250 275 288 295 301 309 315 320 322 329 331 316 300 292 297 277 242 243 265 296 298 287 261 276 297 316 309 262
230 229 226 211 214 196 185 185 192 216 219 219 221 222 244 261 278 287 291 295 300 302 306 310 311 312 308 304 296 286 276 251 246 250 254 264 281 295 284 287 304 302 290
222 215 206 198 198 190 189 186 190 222 234 236 243 239 243 248 254 266 270 279 287 290 294 301 292 291 289 289 284 284 287 268 253 250 251 251 252 259 264 281 294 295 293
218 213 205 195 193 195 190 187 200 228 243 244 252 254 250 244 250 254 254 260 264 272 280 283 279 278 281 285 282 278 280 274 268 267 256 254 257 252 249 258 289 302 295
212 200 190 188 192 194 197 200 209 233 248 248 254 261 258 248 253 261 259 261 264 273 275 277 279 279 277 276 276 270 275 276 270 269 265 256 257 252 251 246 246 269 294
196 192 192 196 202 208 215 216 219 234 248 253 255 260 260 257 259 266 269 269 271 274 281 282 280 279 276 270 263 264 266 265 266 262 263 262 261 258 252 247 244 241 255
202 204 206 211 215 226 231 237 243 250 259 259 260 267 269 269 271 269 270 273 277 279 279 280 282 281 279 273 262 259 260 258 261 263 260 263 262 259 255 246 241 241 240
208 211 217 223 234 245 251 253 257 256 259 261 265 267 272 277 276 274 275 277 278 279 279 281 281 280 279 274 269 270 268 257 258 260 258 261 263 256 254 246 241 239 236
211 216 224 233 243 250 256 260 262 262 266 267 268 275 278 277 274 275 279 281 279 281 283 280 279 279 280 278 273 269 269 263 258 255 253 255 255 256 253 248 245 243 244
217 219 233 243 249 253 257 264 271 268 268 267 266 272 274 272 273 276 279 280 280 280 281 280 278 277 278 277 275 272 270 268 264 256 251 250 246 247 249 247 244 243 244
225 225 232 242 250 258 263 263 268 271 265 265 269 270 274 274 274 277 278 281 280 281 279 282 281 278 276 272 269 268 270 269 269 264 255 249 246 244 242 239 237 236 237
231 233 236 240 244 248 255 261 264 265 260 261 268 274 279 279 277 278 281 284 283 282 281 279 279 279 275 270 270 271 271 271 270 270 266 258 257 254 251 247 240 228 228
229 230 232 232 236 241 244 251 256 263 260 262 270 276 276 278 279 283 286 285 284 282 283 281 277 275 273 270 272 273 272 268 267 266 266 265 259 250 245 247 248 243 233
227 229 230 231 236 237 240 246 254 256 259 266 272 276 276 279 282 283 284 283 282 282 282 282 280 278 276 272 271 274 273 268 265 262 259 258 258 253 244 244 246 245 242
218 222 220 219 226 235 237 243 255 256 261 266 269 273 274 279 284 286 285 285 284 285 283 281 280 278 280 276 273 273 271 266 266 263 259 254 255 248 238 241 246 247 247
221 220 215 210 226 237 227 231 250 256 259 261 265 270 272 275 280 282 284 284 282 284 287 284 279 275 277 277 275 274 265 265 268 267 262 254 251 247 236 238 240 243 242
217 210 201 209 225 227 207 231 247 252 254 258 264 271 273 274 277 278 278 283 286 287 286 285 284 279 273 275 274 271 256 254 265 268 268 259 247 244 240 233 235 235 233
212 200 200 220 228 215 206 232 246 250 255 256 263 271 277 279 284 280 284 284 285 288 289 290 291 285 275 267 271 269 261 252 255 263 266 264 255 250 246 237 230 226 222
209 198 202 221 232 220 208 229 245 247 247 252 262 273 282 284 282 280 284 290 287 284 288 289 290 292 289 276 266 269 269 268 261 261 261 265 264 260 252 238 224 216 216
208 199 199 217 234 230 220 229 242 241 238 253 267 277 286 291 291 284 278 281 284 285 287 287 287 290 291 287 278 268 269 275 277 274 272 270 266 252 244 236 221 215 211
202 194 201 217 231 232 231 234 235 226 236 253 266 278 282 286 292 291 281 277 272 264 269 280 279 282 285 281 266 264 268 270 275 286 278 269 265 252 240 232 221 212 209
194 195 208 222 233 233 239 239 227 215 228 252 266 274 282 288 290 298 303 281 266 271 264 256 256 264 259 271 278 270 265 265 270 266 262 267 258 249 241 229 219 211 211
Height
1532 1533 1535 1536 1537 1538 1539 1539 1540 1540 1539 1538 1537 1535 1533 1531 1528 1526 1524 1522 1521 1520 1519 1518 1518 1517 1516 1515 1514 1512 1511 1510 1508 1506 1504 1503 1503 1502 1502 1502 1502 1504 1506
1531 1532 1534 1535 1536 1537 1537 1538 1538 1538 1537 1536 1535 1533 1531 1528 1526 1524 1521 1520 1518 1517 1516 1515 1514 1514 1513 1512 1511 1510 1509 1507 1506 1504 1502 1500 1499 1497 1497 1497 1497 1497 1500
1529 1531 1532 1533 1534 1535 1536 1536 1537 1536 1536 1534 1532 1531 1528 1526 1524 1521 1519 1517 1516 1514 1513 1512 1511 1510 1509 1509 1508 1507 1506 1505 1504 1503 1502 1500 1497 1495 1494 1493 1493 1493 1495
1528 1530 1531 1532 1532 1533 1534 1534 1534 1534 1533 1532 1530 1528 1526 1523 1521 1519 1517 1515 1513 1512 1510 1508 1507 1506 1505 1505 1504 1504 1503 1502 1501 1501 1500 1499 1497 1496 1492 1492 1491 1491 1491
1526 1527 1529 1530 1531 1532 1532 1532 1532 1531 1530 1529 1527 1525 1523 1521 1518 1516 1514 1512 1511 1509 1507 1505 1504 1503 1502 1501 1500 1500 1500 1499 1498 1498 1497 1496 1495 1494 1492 1489 1488 1488 1488
1524 1525 1526 1527 1528 1529 1529 1529 1529 1528 1527 1526 1524 1522 1520 1518 1515 1513 1511 1509 1507 1505 1503 1502 1500 1499 1498 1497 1496 1496 1496 1495 1495 1494 1494 1493 1493 1491 1490 1488 1486 1484 1484
1521 1522 1523 1524 1525 1526 1526 1526 1526 1525 1524 1523 1521 1519 1517 1515 1512 1510 1508 1506 1504 1502 1500 1498 1496 1495 1494 1493 1492 1491 1491 1491 1490 1490 1490 1490 1489 1489 1488 1486 1484 1482 1481
1518 1519 1520 1522 1523 1523 1524 1524 1523 1522 1521 1519 1517 1515 1513 1511 1509 1507 1505 1503 1500 1498 1496 1494 1493 1491 1490 1489 1488 1487 1486 1486 1485 1485 1485 1485 1485 1485 1484 1484 1482 1480 1478
1516 1517 1518 1519 1520 1521 1521 1521 1520 1518 1517 1515 1514 1512 1510 1508 1506 1504 1501 1499 1497 1494 1492 1490 1489 1487 1486 1484 1483 1482 1481 1481 1480 1480 1480 1480 1480 1480 1480 1480 1480 1479 1476
1513 1515 1516 1517 1518 1518 1518 1517 1516 1515 1513 1512 1510 1508 1506 1504 1502 1500 1497 1495 1493 1490 1488 1486 1484 1483 1481 1480 1478 1477 1476 1475 1475 1474 1474 1474 1474 1475 1475 1475 1475 1475 1475
1512 1513 1515 1516 1516 1516 1515 1514 1513 1511 1510 1508 1507 1505 1503 1501 1498 1496 1493 1491 1488 1486 1484 1481 1479 1477 1476 1475 1473 1472 1471 1470 1469 1469 1468 1468 1468 1468 1469 1470 1470 1471 1471
1510 1512 1513 1514 1514 1513 1512 1511 1510 1508 1506 1505 1503 1501 1499 1497 1494 1492 1489 1486 1484 1481 1479 1476 1474 1472 1470 1469 1468 1466 1465 1464 1463 1463 1462 1462 1462 1462 1463 1463 1464 1465 1466
1509 1510 1511 1511 1511 1511 1509 1508 1506 1504 1503 1501 1499 1497 1495 1492 1490 1487 1484 1482 1479 1476 1474 1471 1468 1466 1465 1463 1462 1460 1459 1458 1457 1456 1456 1456 1456 1455 1456 1457 1458 1459 1460
1507 1508 1508 1509 1508 1507 1506 1504 1502 1500 1499 1497 1495 1493 1490 1488 1485 1482 1479 1476 1473 1470 1468 1465 1463 1461 1459 1457 1456 1454 1453 1451 1450 1450 1449 1449 1449 1449 1449 1450 1451 1452 1454
1504 1505 1505 1505 1505 1504 1502 1500 1498 1496 1494 1492 1490 1488 1485 1483 1480 1477 1474 1471 1468 1465 1462 1459 1457 1455 1453 1451 1450 1448 1446 1445 1443 1442 1442 1441 1441 1442 1442 1443 1444 1446 1447
1501 1501 1502 1502 1501 1500 1498 1496 1494 1492 1490 1488 1486 1483 1481 1478 1475 1472 1469 1465 1462 1459 1456 1453 1451 1449 1447 1445 1444 1442 1439 1438 1436 1435 1434 1434 1434 1434 1435 1436 1437 1439 1440
1497 1498 1498 1498 1497 1495 1494 1492 1490 1488 1486 1484 1481 1479 1476 1473 1470 1466 1463 1460 1456 1453 1450 1448 1445 1443 1441 1439 1437 1435 1433 1431 1429 1428 1427 1426 1426 1427 1427 1428 1430 1431 1433
1493 1494 1494 1493 1492 1491 1489 1488 1486 1484 1481 1479 1477 1474 1471 1468 1464 1461 1458 1454 1451 1447 1445 1442 1440 1437 1435 1433 1431 1429 1426 1424 1422 1421 1420 1419 1418 1419 1420 1420 1421 1423 1425
1489 1489 1489 1489 1488 1487 1485 1483 1481 1479 1477 1474 1472 1469 1466 1462 1459 1455 1452 1449 1445 1442 1439 1437 1434 1431 1429 1427 1425 1422 1419 1417 1415 1414 1413 1412 1411 1411 1412 1412 1413 1414 1417
1484 1484 1485 1484 1483 1482 1481 1479 1477 1475 1472 1470 1467 1464 1461 1457 1454 1450 1447 1444 1440 1437 1434 1431 1429 1426 1423 1421 1418 1416 1413 1410 1408 1407 1405 1404 1404 1403 1404 1404 1405 1406 1409
1479 1480 1480 1480 1479 1478 1476 1474 1472 1470 1468 1465 1462 1459 1456 1452 1448 1445 1442 1438 1435 1432 1429 1426 1423 1421 1418 1414 1412 1410 1407 1404 1402 1400 1398 1397 1397 1396 1396 1396 1397 1399 1403
1474 1474 1475 1475 1475 1473 1472 1469 1467 1465 1463 1460 1457 1454 1451 1447 1443 1440 1436 1433 1430 1427 1424 1421 1418 1415 1412 1409 1406 1403 1401 1398 1395 1393 1392 1391 1390 1389 1389 1389 1390 1393 1396
1469 1469 1470 1470 1469 1468 1467 1465 1463 1461 1458 1455 1452 1449 1446 1442 1439 1435 1432 1428 1425 1422 1419 1415 1412 1409 1406 1403 1400 1397 1395 1392 1390 1388 1386 1385 1384 1383 1382 1383 1384 1386 1389
1463 1464 1465 1464 1464 1463 1462 1460 1458 1456 1453 1451 1448 1445 1441 1438 1434 1431 1427 1423 1420 1417 1414 1410 1407 1404 1401 1398 1395 1392 1389 1387 1385 1383 1381 1380 1379 1378 1377 1377 1379 1380 1383
1458 1459 1459 1459 1459 1459 1457 1455 1453 1451 1449 1446 1443 1440 1436 1433 1429 1426 1422 1419 1415 1413 1409 1405 1402 1399 1395 1393 1390 1387 1384 1382 1380 1378 1377 1376 1375 1374 1373 1373 1374 1376 1378
1452 1454 1455 1455 1455 1454 1452 1451 1449 1447 1444 1441 1438 1435 1432 1428 1424 1421 1417 1414 1411 1408 1405 1401 1398 1394 1391 1387 1385 1382 1379 1377 1376 1374 1372 1371 1371 1370 1370 1370 1370 1372 1374